Location: Llangybi
(52.1500°N, 4.0500°W)
Time: 11:55:00
(UTC+00:00)

Daily predictions for brighter satellites

Satellite Brightness Start Highest point End
(mag) Time Altitude Azimuth Time Altitude Azimuth Time Altitude Azimuth
Envisat 3.1 16:39:15 10° SSE 16:44:14 58° ENE 16:49:14 10° N
SL-08 R/B 3.6 16:39:42 10° NNE 16:44:37 78° WNW 16:49:24 10° SSW
GEOS 3 Rocket 4.3 16:39:28 10° NE 16:44:43 52° NW 16:49:54 10° WSW
ASTRO F (AKARI) 4.2 16:42:15 10° SSE 16:45:29 78° ENE 16:48:38 10° NNW
Lacrosse 5 rocket 2.2 16:43:23 10° SSW 16:46:38 30° SE 16:49:49 10° ENE
Cosmos 1862 3.9 16:43:21 10° NNW 16:47:22 64° W 16:51:19 10° S
Cosmos 1500 Rocket 4.4 16:46:53 10° NNW 16:51:13 55° W 16:55:32 10° S
Cosmos 2322 Rocket 4.1 16:47:35 10° WNW 16:51:28 18° NNW 16:55:21 10° NNE
Cosmos 2297 3.7 16:46:20 10° NNW 16:52:04 82° ENE 16:57:47 10° SSE
YAOGAN 6 2.8 16:49:41 10° SE 16:53:10 47° ENE 16:56:38 10° N
Cosmos 1606 3.1 16:51:26 10° SSE 16:55:08 44° E 16:58:51 10° NNE
Landsat 5 4.1 16:54:16 10° NNE 16:58:31 42° E 17:02:48 10° S
SL-16 R/B 2.7 16:53:51 10° S 16:59:06 42° ESE 17:04:25 10° NE
BREEZE-M DEB (TANK) 4.2 17:00:10 10° SSW 17:01:31 13° SSE 17:02:37 10° SE
Cosmos 2154 Rocket 4.3 16:55:43 10° NNW 17:02:03 75° W 17:08:23 10° S
Sich 1 3.0 17:01:54 10° N 17:06:19 88° E 17:10:39 10° S
SMAP 3.1 17:02:54 10° SE 17:07:27 55° ENE 17:12:01 10° N
Cosmos 1656 Rocket 4.4 17:02:45 10° NNW 17:07:52 33° NE 17:12:53 10° ESE
CZ-4C R/B 3.3 17:06:03 10° NNE 17:09:37 52° E 17:13:09 10° S
Cosmos 1470 Rocket 4.1 17:07:07 10° N 17:11:06 34° ENE 17:15:03 10° SE
YAOGAN 1 4.2 17:09:19 10° E 17:11:35 14° NE 17:13:49 10° NNE
Cosmos 1151 Rocket 3.6 17:09:46 10° SSE 17:13:38 34° E 17:17:31 10° NNE
SL-8 Rocket 4.0 17:13:56 10° N 17:20:11 70° ENE 17:26:27 10° SSE
Cosmos 2341 Rocket 4.1 17:15:26 10° N 17:21:46 88° ENE 17:28:08 10° S
Cosmos 1238 Rocket 4.4 17:20:33 10° NNE 17:23:12 17° ENE 17:26:08 10° ESE
CZ-2C R/B 4.0 17:19:45 10° ESE 17:23:29 22° ENE 17:27:08 10° N
TELKOM 3 3.7 17:21:48 10° WSW 17:24:38 51° S 17:26:18 17° ESE
COSMO-SKYMED 1 4.0 17:23:06 15° ENE 17:24:45 18° E 17:27:46 10° SE
Cosmos 2360 Rocket 4.2 17:23:38 10° WNW 17:27:21 18° NNW 17:31:05 10° NNE
X-37B 3.1 17:25:39 10° SSW 17:27:24 14° SSE 17:29:11 10° SE
Cosmos 2333 Rocket 3.8 17:23:23 10° W 17:28:09 27° NW 17:32:57 10° NNE
Radarsat Rocket 4.5 17:23:13 10° SSE 17:29:28 78° WSW 17:36:36 10° NNW
USA 81 4.0 17:24:38 10° N 17:29:55 66° E 17:35:10 10° SSE
Cosmos 2219 Rocket 3.8 17:25:21 10° W 17:30:09 28° NW 17:34:57 10° NNE
USA 281 3.7 17:24:54 10° ESE 17:30:51 38° NE 17:36:47 10° NNW
Cosmos 2285 Rocket 4.2 17:25:47 10° NNW 17:32:12 78° WSW 17:38:32 10° SSE
Helios 1A Rocket 4.1 17:33:25 18° E 17:34:51 21° ENE 17:37:55 10° N
CORIOLIS 4.1 17:29:25 10° SSE 17:34:51 82° ENE 17:40:20 10° NNW
COSMOS 2428 4.3 17:30:21 10° W 17:35:20 29° NW 17:40:19 10° NNE
Meteor 1-4 Rocket 3.1 17:32:12 10° SSE 17:35:28 34° E 17:37:26 19° NE
Cosmos 1821 Rocket 4.5 17:29:54 10° N 17:35:40 37° ENE 17:41:28 10° SE
H-2A R/B 3.1 17:35:17 13° E 17:38:25 22° ENE 17:42:17 10° N
USA 267 3.3 17:34:11 14° E 17:39:52 65° NNE 17:46:20 10° WNW
Cosmos 44 Rocket 3.6 17:35:24 10° NW 17:40:26 51° NE 17:45:08 12° ESE
Cosmos 1939 Rocket 3.2 17:36:57 10° SE 17:40:36 40° ENE 17:44:21 10° N
Cosmos 1933 Rocket 3.8 17:36:54 10° N 17:41:15 46° ENE 17:45:33 10° SSE
Cosmos 389 Rocket 3.2 17:37:58 10° SSW 17:41:18 51° WNW 17:44:40 10° N
Cosmos 1328 Rocket 3.6 17:37:16 10° S 17:41:30 57° E 17:45:47 10° NNE
Cosmos 1666 Rocket 4.1 17:37:56 10° NNW 17:42:19 64° W 17:46:43 10° S
CZ-4 R/B 2.4 17:41:26 19° E 17:43:00 25° ENE 17:46:21 10° N
Cosmos 1980 Rocket 4.3 17:41:31 10° NNW 17:43:07 11° N 17:44:44 10° NNE
Meteor 1-20 Rocket 4.5 17:37:34 10° NNW 17:43:27 78° W 17:49:15 10° S
Cosmos 1602 3.6 17:39:58 10° N 17:43:54 69° ENE 17:47:47 10° SSE
IRS-1C Rocket 4.3 17:42:04 10° SE 17:47:07 48° ENE 17:52:12 10° N
Cosmos 2181 Rocket 4.0 17:43:11 10° S 17:49:35 79° E 17:55:56 10° NNE
H-2A R/B 3.9 17:45:52 10° S 17:49:50 40° W 17:53:42 10° NNW
Cosmos 2237 Rocket 3.2 17:44:43 10° WSW 17:50:04 43° NW 17:55:29 10° NNE
NOAA 11 4.1 17:45:26 10° SSE 17:50:52 85° ENE 17:56:22 10° NNW
CZ-4B R/B 3.6 17:46:54 10° S 17:52:10 65° WSW 17:57:27 10° NNW
SL-16 R/B 4.4 17:52:24 10° NNW 17:54:31 12° N 17:56:38 10° NNE
Cosmos 1603 4.4 17:49:51 10° SSE 17:54:47 33° ESE 17:56:55 25° ENE
Meteor 1-26 Rocket 4.3 17:49:09 10° S 17:55:08 69° E 18:01:05 10° NNE
Cosmos 2369 Rocket 2.2 17:51:05 10° NNW 17:56:49 87° WSW 18:02:29 10° SSE
H-2A R/B 2.2 17:52:45 10° NNE 17:56:57 74° WNW 18:01:14 10° SSW
CZ-2D R/B 3.5 17:53:49 10° SE 17:57:27 43° ENE 18:01:07 10° N
Cosmos 1943 Rocket 2.8 17:52:35 10° NW 17:58:02 58° WSW 18:03:29 10° S
Cosmos 1943 4.0 17:53:17 10° SSE 17:58:11 31° ESE 17:59:58 26° ENE
Meteor 1-14 Rocket 4.3 17:53:15 10° NNW 17:59:15 80° ENE 18:05:15 10° SSE
Meteor 1-5 Rocket 4.4 17:53:29 10° N 17:59:19 53° ENE 18:04:56 10° SSE
Cosmos 1538 Rocket 4.2 17:55:03 10° S 18:00:16 53° ESE 18:03:44 21° NE
ADEOS Rocket 4.1 17:54:24 10° N 18:01:58 60° WNW 18:09:31 10° SW
Cosmos 1782 2.7 17:59:55 10° S 18:03:51 69° E 18:06:45 18° NNE
Okean O Rocket 2.5 18:00:01 10° S 18:04:16 52° W 18:08:36 10° NNW
ISS -3.8 18:01:39 10° W 18:05:01 79° S 18:05:55 46° ESE
Okean-O 2.9 18:01:42 10° SE 18:05:52 42° ENE 18:10:05 10° N
Cosmos 1633 Rocket 4.2 18:02:15 10° NNW 18:06:26 45° W 18:10:35 10° SSW
Cosmos 2056 Rocket 4.1 18:03:22 10° NNW 18:08:14 35° NE 18:09:29 31° E
CENTAUR R/B 3.8 18:04:15 10° SSE 18:07:44 19° ESE 18:07:44 19° ESE
ARGOS 3.9 18:08:31 29° ENE 18:08:50 30° ENE 18:13:27 10° N
Cosmos 1933 4.1 18:05:54 10° SSW 18:09:52 53° WNW 18:13:53 10° N
SL-08 R/B 4.4 18:04:09 10° N 18:10:19 81° ENE 18:16:27 10° SSE
ERS-2 2.1 18:10:45 43° NE 18:11:38 57° ESE 18:15:14 10° S
SKYMED 2 3.7 18:11:44 34° NE 18:13:13 48° E 18:17:24 10° S
Cosmos 1869 Rocket 3.8 18:11:39 10° N 18:15:59 45° ENE 18:17:48 29° SE
Cosmos 1867 4.3 18:17:08 10° WSW 18:22:25 48° NW 18:25:34 23° NNE
Cosmos 1624 Rocket 4.3 18:19:57 10° NNW 18:25:05 45° ENE 18:25:55 42° E
Lacrosse 5 rocket 1.0 18:21:56 10° WSW 18:25:32 64° NNW 18:25:53 60° N
BREEZE-M DEB (TANK) 2.9 18:25:03 10° WSW 18:26:38 41° SW 18:26:38 41° SW
Meteor 1-10 Rocket 4.4 18:21:52 10° SSE 18:27:12 47° E 18:28:49 36° NE
Cosmos 371 Rocket 3.4 18:22:40 10° NNW 18:27:27 50° ENE 18:28:00 48° E
Cosmos 489 Rocket 4.4 18:23:27 10° SSW 18:29:40 89° ESE 18:34:18 19° NNE
CZ-4B R/B 1.4 18:29:34 65° NW 18:29:44 67° WNW 18:32:52 10° SSW
Cosmos 773 Rocket 4.4 18:25:47 10° SW 18:31:01 62° WNW 18:34:54 18° NNE
Cosmos 2322 Rocket 4.4 18:36:25 10° NNW 18:38:02 11° N 18:39:26 10° NNE
Cosmos 1500 3.5 18:36:07 10° NNW 18:39:55 65° W 18:43:43 10° S
NOSS 3-2 (A) 3.7 18:35:38 10° S 18:41:01 44° ESE 18:41:27 43° ESE
Cosmos 2239 Rocket 4.3 18:36:19 10° N 18:42:31 83° E 18:48:44 10° SSE
SL-16 R/B 3.1 18:37:50 10° WSW 18:43:15 45° NW 18:46:58 19° NNE
Cosmos 1535 Rocket 4.4 18:37:19 10° N 18:43:22 58° ENE 18:49:23 10° SSE
YAOGAN 1 2.4 18:46:28 68° SSE 18:47:01 84° ENE 18:51:22 10° NNW
USA 215 3.7 18:46:42 39° ESE 18:47:41 41° SE 18:53:47 10° SSW
SL-24 DEB 4.5 18:44:10 10° N 18:48:55 70° W 18:53:35 10° SSW
Cosmos 1697 Rocket 4.4 18:45:58 10° NNW 18:48:48 18° NNE 18:48:48 18° NNE
Cosmos 1656 Rocket 4.1 18:46:15 10° NW 18:51:51 62° WSW 18:57:18 10° SSE
MOS 1 Rocket 3.5 18:52:43 63° E 18:52:51 63° E 18:58:10 10° S
USA 238 DEB 3.7 18:53:56 10° SSW 19:00:17 53° SE 19:00:35 53° ESE
USA 238 3.7 18:54:02 10° SSW 19:00:23 53° SE 19:00:39 52° ESE
COSMO-SKYMED 1 3.0 19:00:20 47° NNW 19:01:18 62° WNW 19:05:35 10° SSW
Cosmos 158 Rocket 4.0 18:56:42 10° SSW 19:00:45 57° S 19:00:45 57° S
Cosmos 1238 Rocket 3.4 18:59:05 10° NNW 19:02:55 60° W 19:07:33 10° S
Cosmos 332 Rocket 4.5 18:58:08 10° NNW 19:01:26 42° N 19:01:26 42° N
CZ-2C R/B 3.2 18:58:06 10° S 19:03:01 65° WSW 19:07:47 10° NNW
X-37B 3.4 19:00:48 10° SW 19:01:44 15° SW 19:01:44 15° SW
Cosmos 1934 Rocket 3.9 18:58:57 10° N 19:05:23 85° E 19:11:42 10° S
Cosmos 923 Rocket 3.9 19:00:23 10° SSW 19:05:14 75° SSE 19:05:14 75° SSE
Helios 1A Rocket 3.7 19:09:39 50° WSW 19:09:44 50° W 19:13:41 10° NNW
CSL-04 Debris 4.1 19:09:14 44° SSE 19:11:05 87° WSW 19:16:37 10° NNW
Cosmos 2228 Rocket 3.5 19:07:45 10° SSW 19:12:02 62° W 19:12:02 62° W
Cosmos 2360 Rocket 4.5 19:12:22 10° NNW 19:13:53 11° N 19:14:21 11° N
Cosmos 2333 Rocket 4.5 19:12:08 10° NW 19:14:32 13° NNW 19:16:04 11° N
USA 281 3.5 19:08:33 10° SSE 19:15:04 65° WSW 19:21:38 10° NNW
Cosmos 2219 Rocket 4.5 19:13:50 10° NW 19:16:09 12° NNW 19:17:45 11° N
Nadezhda 3 Rocket 4.2 19:10:02 10° SSW 19:16:23 71° WNW 19:22:47 10° N
Meteor 2-6 Rocket 4.5 19:11:29 10° SSW 19:16:59 64° WNW 19:19:30 32° N
H-2A R/B 2.1 19:15:56 47° S 19:17:24 73° WSW 19:22:31 10° NNW
CZ-4 R/B 2.6 19:17:28 40° WSW 19:17:51 41° W 19:21:44 10° NNW
Meteor 1-11 Rocket 4.1 19:16:43 10° NNW 19:22:26 64° W 19:28:14 10° S
USA 267 3.3 19:21:33 58° SSE 19:22:52 75° SSW 19:29:27 10° WNW
CSL-04 Rocket 3.7 19:25:43 71° WSW 19:25:50 72° WSW 19:31:10 10° NNW
Cosmos 1980 Rocket 4.2 19:25:25 10° NNW 19:27:02 16° N 19:27:02 16° N
Cosmos 1680 Rocket 4.3 19:27:09 10° SSW 19:30:41 43° SSW 19:30:41 43° SSW
Cosmos 2237 Rocket 4.4 19:32:19 10° WNW 19:35:42 16° NNW 19:37:29 14° N
Cosmos 1603 4.2 19:33:12 10° SW 19:38:42 54° NW 19:38:52 54° NW
ISS -0.3 19:38:31 10° W 19:38:53 12° W 19:38:53 12° W
Cosmos 1943 3.7 19:36:23 10° SW 19:41:49 57° WNW 19:41:49 57° WNW
ARGOS 4.0 19:50:03 46° NW 19:50:03 46° NW 19:54:11 10° NNW
CENTAUR R/B 3.5 19:51:40 10° SW 19:54:59 36° SSW 19:54:59 36° SSW
USA 215 4.4 20:34:04 37° WSW 20:34:04 37° WSW 20:37:41 10° WSW
